SQ7FJB-2 Weather Reports


time (UTC)temp
C
wind
direction
speed
KPH
gust
KPH
rain 1hr
cm
rain 24hr
cm
rain mn
cm
humidity
%
barometer
mb
20260508053326 8 312 1.6 1.6 0.00 0.00 0.00 90 1015.5
20260508052313 8 348 0.0 0.0 0.00 0.00 0.00 91 1015.5
20260508051314 8 3 1.6 1.6 0.00 0.00 0.00 90 1015.5
20260508050301 8 42 1.6 1.6 0.00 0.00 0.00 89 1015.6
20260508045301 8 354 0.0 0.0 0.00 0.00 0.00 89 1015.5
20260508044248 8 348 0.0 0.0 0.00 0.00 0.00 89 1015.4
20260508043248 8 355 0.0 0.0 0.00 0.00 0.00 90 1015.4
20260508042248 8 349 0.0 0.0 0.00 0.00 0.00 90 1015.3
20260508041248 8 336 0.0 0.0 0.00 0.00 0.00 90 1015.2
20260508040235 8 0 0.0 0.0 0.00 0.00 0.00 90 1015.2
20260508035235 8 342 1.6 1.6 0.00 0.00 0.00 90 1015.1
20260508034223 8 336 0.0 0.0 0.00 0.00 0.00 90 1014.9
20260508033223 7 348 0.0 0.0 0.00 0.00 0.00 90 1014.8
20260508032223 7 352 1.6 1.6 0.00 0.00 0.00 90 1014.7
20260508031210 7 6 0.0 0.0 0.00 0.00 0.00 90 1014.7
20260508030211 8 354 1.6 1.6 0.00 0.00 0.00 90 1014.7
20260508025158 8 6 1.6 1.6 0.00 0.00 0.00 90 1014.7
20260508024158 8 0 1.6 1.6 0.00 0.00 0.00 90 1014.7
20260508023158 8 312 1.6 1.6 0.00 0.00 0.00 90 1014.7
20260508022145 8 342 1.6 1.6 0.00 0.00 0.00 90 1014.5
20260508021145 8 288 0.0 0.0 0.00 0.00 0.00 90 1014.5
20260508020146 8 342 0.0 0.0 0.00 0.00 0.00 91 1014.5
20260508015133 8 347 1.6 1.6 0.00 0.00 0.00 92 1014.5
20260508014133 8 336 0.0 0.0 0.00 0.00 0.00 92 1014.5
20260508013133 8 337 0.0 0.0 0.00 0.00 0.00 92 1014.5
20260508012120 8 0 0.0 0.0 0.00 0.00 0.00 93 1014.5
20260508011120 8 348 0.0 0.0 0.00 0.00 0.00 93 1014.6
20260508010120 8 343 0.0 0.0 0.00 0.00 0.00 92 1014.6
20260508005108 8 356 3.2 3.2 0.00 0.00 0.00 91 1014.5
20260508004108 8 348 0.0 0.0 0.00 0.00 0.00 91 1014.5
20260508003056 9 9 1.6 1.6 0.00 0.00 0.00 90 1014.4
20260508002055 9 330 0.0 0.0 0.00 0.00 0.00 90 1014.5
20260508001046 9 338 0.0 0.0 0.00 0.00 0.00 89 1014.5
20260508000043 9 276 0.0 0.0 0.00 0.00 0.00 89 1014.3
20260507235043 9 342 0.0 0.0 0.00 0.00 0.00 89 1014.2
20260507234043 9 312 0.0 0.0 0.00 0.00 0.00 89 1014.3
20260507233030 9 316 0.0 0.0 0.00 0.00 0.00 90 1014.1
20260507232030 9 294 0.0 0.0 0.00 0.00 0.00 89 1014.2
20260507231030 9 334 0.0 0.0 0.00 0.00 0.00 90 1014.3
20260507230030 9 354 0.0 0.0 0.00 0.00 0.00 90 1014.2
20260507225018 9 304 3.2 3.2 0.00 0.10 0.00 89 1014.2
20260507224018 9 340 1.6 1.6 0.00 0.10 0.00 89 1014.2
20260507223018 10 246 1.6 1.6 0.00 0.10 0.00 89 1014.3
20260507222005 10 312 0.0 0.0 0.00 0.10 0.00 88 1014.1
20260507221005 10 0 1.6 1.6 0.00 0.10 0.00 88 1013.9
20260507220005 10 348 0.0 0.0 0.00 0.10 0.00 89 1014.0
20260507214953 10 329 0.0 0.0 0.00 0.10 0.00 88 1014.0
20260507213953 10 357 0.0 0.0 0.00 0.10 0.00 88 1014.0
20260507212953 10 330 0.0 0.0 0.00 0.10 0.00 88 1013.9
20260507211941 10 342 1.6 1.6 0.00 0.10 0.00 88 1013.9
20260507210940 10 342 0.0 0.0 0.00 0.10 0.00 88 1014.0
20260507205940 10 6 0.0 0.0 0.00 0.10 0.00 88 1013.9
20260507204928 10 34 1.6 1.6 0.00 0.10 0.00 88 1013.9
20260507203916 10 276 0.0 0.0 0.00 0.10 0.00 88 1013.9
20260507202903 10 72 1.6 1.6 0.00 0.10 0.00 88 1013.7
20260507201903 10 330 0.0 0.0 0.00 0.10 0.00 89 1013.7
20260507200903 10 354 1.6 1.6 0.00 0.10 0.00 89 1013.7
20260507195850 10 30 3.2 3.2 0.00 0.10 0.00 89 1013.5
20260507194838 10 114 1.6 1.6 0.00 0.10 0.00 89 1013.4
20260507193837 10 340 0.0 0.0 0.00 0.10 0.00 90 1013.4
20260507192838 10 18 0.0 0.0 0.00 0.10 0.00 90 1013.1
20260507191825 10 18 0.0 0.0 0.00 0.10 0.00 90 1013.0
20260507190813 10 8 1.6 1.6 0.00 0.10 0.00 90 1013.0
20260507185813 10 318 0.0 0.0 0.00 0.10 0.00 91 1012.8
20260507184800 11 345 0.0 0.0 0.00 0.10 0.00 90 1012.6
20260507183748 11 357 0.0 0.0 0.00 0.10 0.00 90 1012.3
20260507182747 11 344 3.2 3.2 0.00 0.10 0.00 90 1012.2
20260507181747 11 340 3.2 3.2 0.00 0.10 0.00 89 1012.0
20260507180736 11 351 3.2 3.2 0.00 0.10 0.00 89 1012.0
20260507175735 11 328 0.0 0.0 0.00 0.10 0.00 89 1011.9
20260507174735 11 329 0.0 0.0 0.00 0.10 0.00 89 1011.8
20260507173735 12 96 3.2 3.2 0.00 0.10 0.00 88 1011.6
20260507172723 12 18 0.0 0.0 0.00 0.10 0.00 88 1011.7
20260507171712 12 312 1.6 1.6 0.00 0.10 0.00 88 1011.6
20260507170710 12 344 1.6 1.6 0.00 0.10 0.00 88 1011.8
20260507165658 12 345 1.6 1.6 0.00 0.10 0.00 87 1011.5
20260507164659 12 324 3.2 3.2 0.00 0.10 0.00 87 1011.5
20260507163645 13 338 1.6 1.6 0.00 0.10 0.00 87 1011.4
20260507162645 13 327 0.0 0.0 0.00 0.10 0.00 87 1011.0
20260507161645 13 350 0.0 0.0 0.00 0.10 0.00 86 1011.0
20260507160645 13 90 3.2 3.2 0.00 0.10 0.00 86 1011.0
20260507155645 13 324 0.0 0.0 0.00 0.10 0.00 86 1011.0
20260507154632 14 36 4.8 6.4 0.00 0.10 0.00 85 1010.8
20260507153633 14 321 0.0 0.0 0.00 0.10 0.00 85 1010.8
20260507152620 14 348 0.0 0.0 0.03 0.10 0.00 86 1010.7
20260507151608 15 42 1.6 1.6 0.05 0.10 0.00 85 1010.6
20260507150555 15 17 3.2 3.2 0.05 0.10 0.00 86 1010.4
20260507145555 15 305 3.2 3.2 0.05 0.10 0.00 85 1010.6
20260507144543 15 18 3.2 3.2 0.05 0.10 0.00 87 1010.4
20260507143530 15 336 1.6 1.6 0.03 0.08 0.00 84 1010.5
20260507142530 15 12 1.6 1.6 0.00 0.03 0.00 78 1010.6
20260507141517 16 6 1.6 1.6 0.00 0.03 0.00 78 1010.3
20260507140518 16 335 0.0 0.0 0.00 0.03 0.00 76 1010.6
20260507135518 16 341 0.0 0.0 0.00 0.03 0.00 75 1010.6
20260507134517 16 64 1.6 1.6 0.00 0.03 0.00 73 1010.5
20260507133505 16 318 0.0 0.0 0.00 0.03 0.00 73 1010.5
20260507132505 16 11 1.6 1.6 0.00 0.03 0.00 73 1010.3
20260507131505 17 348 4.8 4.8 0.00 0.03 0.00 72 1010.7
20260507130453 17 6 0.0 0.0 0.00 0.03 0.00 75 1010.6
20260507125440 16 282 0.0 0.0 0.00 0.03 0.00 74 1010.5
20260507124427 16 108 1.6 1.6 0.00 0.03 0.00 75 1010.5
20260507123427 16 354 0.0 0.0 0.00 0.03 0.00 77 1010.4
20260507122427 16 6 4.8 6.4 0.00 0.03 0.00 77 1010.5
20260507121427 15 108 0.0 0.0 0.00 0.03 0.00 78 1010.6
20260507120428 15 62 0.0 0.0 0.00 0.03 0.00 81 1010.7
20260507115415 16 215 1.6 1.6 0.00 0.03 0.00 77 1010.8
20260507114415 16 328 0.0 0.0 0.00 0.03 0.00 78 1010.7
20260507113414 15 283 1.6 1.6 0.03 0.03 0.00 81 1010.7
20260507112403 15 346 0.0 0.0 0.03 0.03 0.00 84 1010.7
20260507111402 15 318 1.6 1.6 0.03 0.03 0.00 87 1010.7
20260507110402 14 39 0.0 0.0 0.03 0.03 0.00 88 1010.6
20260507105350 13 57 0.0 0.0 0.03 0.03 0.00 89 1010.6
20260507104350 13 336 0.0 0.0 0.03 0.03 0.00 89 1010.6
20260507103338 13 341 0.0 0.0 0.00 0.00 0.00 89 1010.5
20260507102325 13 355 0.0 0.0 0.00 0.00 0.00 89 1010.4
20260507101312 13 288 0.0 0.0 0.00 0.00 0.00 88 1010.3
20260507100312 13 346 0.0 0.0 0.00 0.00 0.00 88 1010.0
20260507095312 13 84 1.6 1.6 0.00 0.00 0.00 88 1009.9
20260507094300 13 325 0.0 0.0 0.00 0.00 0.00 90 1009.7
20260507093300 13 345 0.0 0.0 0.00 0.00 0.00 91 1009.6
20260507092300 12 334 1.6 1.6 0.00 0.00 0.00 92 1009.6
20260507091248 13 24 1.6 1.6 0.00 0.00 0.00 92 1009.5
20260507090247 13 6 0.0 0.0 0.00 0.00 0.00 91 1009.3
20260507085248 13 341 1.6 1.6 0.00 0.00 0.00 91 1009.0
20260507084247 13 353 0.0 0.0 0.00 0.00 0.00 92 1008.9
20260507083235 13 357 0.0 0.0 0.00 0.00 0.00 91 1008.8
20260507082235 13 6 0.0 0.0 0.00 0.00 0.00 91 1008.7
20260507081222 13 36 3.2 3.2 0.00 0.00 0.00 91 1008.5
20260507080223 13 28 0.0 0.0 0.00 0.00 0.00 91 1008.3
20260507075222 13 340 1.6 1.6 0.00 0.00 0.00 90 1008.2
20260507074210 13 334 0.0 0.0 0.00 0.00 0.00 91 1008.1
20260507073157 13 36 1.6 1.6 0.00 0.00 0.00 92 1008.0
20260507072158 12 336 1.6 1.6 0.00 0.00 0.00 93 1007.9
20260507071157 12 335 0.0 0.0 0.00 0.00 0.00 93 1007.8
20260507070157 12 335 0.0 0.0 0.00 0.00 0.00 93 1007.7
20260507065145 12 341 3.2 3.2 0.00 0.00 0.00 93 1007.7
20260507064145 12 138 0.0 0.0 0.00 0.00 0.00 93 1007.5
20260507063132 13 332 1.6 1.6 0.00 0.00 0.00 93 1007.5
20260507062133 13 354 3.2 3.2 0.00 0.00 0.00 93 1007.3
20260507061132 13 334 0.0 0.0 0.00 0.00 0.00 93 1007.3
20260507060132 13 330 0.0 0.0 0.00 0.00 0.00 92 1007.2
20260507055132 13 342 0.0 0.0 0.00 0.00 0.00 91 1007.1
20260507054120 13 13 0.0 0.0 0.00 0.00 0.00 90 1006.8